www.pogodaiklimat.ru
ПОГОДА в Уэйкфилде
Время
и дата
03:54 22.05
04:54 22.05
05:54 22.05
06:54 22.05
07:54 22.05
08:54 22.05
09:54 22.05
10:54 22.05
11:02 22.05
11:20 22.05
11:39 22.05
11:54 22.05
12:54 22.05
13:54 22.05
14:54 22.05
15:54 22.05
16:54 22.05
17:54 22.05
18:54 22.05
19:54 22.05
20:54 22.05
21:54 22.05
22:54 22.05
23:54 22.05
00:54 23.05
01:54 23.05
02:54 23.05
03:54 23.05
04:54 23.05
05:54 23.05
06:54 23.05
07:54 23.05
08:54 23.05
09:54 23.05
10:28 23.05
10:54 23.05
11:54 23.05
12:54 23.05
13:54 23.05
14:08 23.05
14:42 23.05
14:54 23.05
15:23 23.05
15:54 23.05
16:44 23.05
16:54 23.05
17:54 23.05
18:54 23.05
Ветер
(напр.,м/с)
Видим. Явления Облачность Т
(С)
Тd
(С)
f
(%)
Тe
(С)
Тes
(С)
Комфортность P
(гПа)
Po
(гПа)
Тmin
(С)
Tmax
(С)
R
(мм)
R24
(мм)
S
(см)
нст 1 16 км ясно +20.6 +19.4 93 +25 +25 комфорт 1019.1 1015.1
Ю 1 16 км ясно +21.1 +20.0 93 +26 +26 душно 1019.3 1015.4
ЮЗ 1 16 км ясно +22.2 +20.6 91 +29 +29 очень
душно
1020.0 1016.1
нст 1 16 км ясно +23.3 +20.6 85 +31 +31 очень
душно
1019.7 1015.8 +20.6 +23.3 10.9
ЮЗ 2
{4}
16 км ясно +24.4 +21.1 82 +31 +32 очень
душно
1020.3 1016.1
ЮЗ 2 16 км ясно +26.1 +21.7 77 +34 +38 очень
душно
1020.3 1016.1
ЮЗ 1 16 км 2/2 690 м +27.8 +21.7 69 +36 +43 очень
душно
1020.0 1015.8
ЮЗ 2
{4}
16 км 5/5 840 м +28.9 +21.7 65 +37 +42 очень
душно
1019.7 1015.8
ЮЗ 2 16 км 8/8 840 м +28.3 +21.7 67 +36 +38 очень
душно
1015.8
З 3
{4}
16 км 8/8 900 м +28.3 +21.7 67 +36 +38 очень
душно
1015.8
ЮЗ 2
{4}
16 км 10/10 780 м +27.8 +21.7 69 +36 +36 очень
душно
1015.8
З 2 16 км 8/8 780 м +28.3 +21.1 65 +36 +38 очень
душно
1019.4 1015.4
ЮЗ 2
{4}
16 км 2/2 900 м +30.0 +21.7 61 +38 +49 очень
душно
1018.5 1014.4 +23.3 +30.0
ЮЗ 2 16 км 5/5 1020 м +30.6 +21.7 59 +39 +44 очень
душно
1018.1 1014.1
ЮЗ 2 16 км 2/2 1140 м +30.6 +21.7 59 +39 +46 очень
душно
1017.7 1013.7
ЮЗ 2
{3}
16 км ясно +31.1 +21.1 55 +39 +45 очень
душно
1017.0 1013.1
ЮЗ 2 16 км ясно +31.1 +20.6 54 +38 +44 очень
душно
1017.0 1013.1
ЮЗ 1 16 км ясно +30.6 +20.0 53 +37 +40 очень
душно
1017.0 1013.1
ЮЗ 1 16 км ясно +28.3 +20.0 61 +35 +36 очень
душно
1017.8 1013.7 +28.3 +31.7
Ю 1 16 км ясно +26.1 +20.6 72 +33 +33 очень
душно
1018.2 1014.1
штиль 0 16 км 2/2 1500 м +25.0 +20.6 77 +31 +31 очень
душно
1019.1 1015.1
штиль 0 16 км ясно +24.4 +17.8 67 +29 +29 душно 1019.5 1015.4
З 1 16 км 8/8 1500 м +23.9 +17.8 69 +28 +28 душно 1019.6 1015.8
З 1 16 км 8/8 1800 м +22.8 +17.8 73 +28 +28 душно 1020.0 1016.1
штиль 0 16 км ясно +21.1 +18.3 84 +25 +25 комфорт 1019.3 1015.4 +21.1 +27.8
З 1 16 км ясно +21.7 +17.8 78 +26 +26 душно 1019.1 1015.1
штиль 0 16 км 8/8 1650 м +21.1 +17.8 81 +25 +25 комфорт 1019.2 1015.1
штиль 0 16 км ясно +19.4 +17.8 90 +21 +21 комфорт 1019.2 1015.1
штиль 0 16 км ясно +19.4 +17.8 90 +21 +21 комфорт 1019.9 1015.8
штиль 0 16 км ясно +21.1 +18.3 84 +25 +25 комфорт 1020.4 1016.4
нст 1 16 км ясно +21.1 +17.2 78 +25 +26 комфорт 1021.0 1017.1 +18.9 +21.7
С 2 16 км ясно +21.7 +16.7 73 +26 +28 душно 1021.6 1017.4
нст 1 16 км ясно +23.3 +17.2 69 +29 +36 душно 1021.5 1017.4
нст 1 16 км 2/2 660 м +23.9 +17.8 69 +28 +37 душно 1022.3 1018.1
С 2 16 км 8/8 660 м +22.8 +16.7 68 +27 +30 душно 1018.1
нст 1 16 км 10/10 660 м +23.3 +17.2 69 +29 +29 душно 1022.3 1018.1
нст 1 16 км 10/10 630 м +23.3 +17.8 71 +29 +29 душно 1022.0 1017.8
нст 1 16 км 10/10 750 м +22.2 +17.2 73 +27 +27 душно 1022.0 1017.8 +21.1 +23.9
штиль 0 16 км 10/10 810 м +22.8 +17.2 71 +28 +28 душно 1021.9 1017.8
нст 1 16 км 10/10 720 м +23.3 +17.2 69 +29 +29 душно 1017.8
нст 1 16 км 10/10 690 м +22.8 +17.2 71 +28 +28 душно 1017.1
нст 1 16 км 10/10 690 м +22.2 +17.2 73 +27 +27 душно 1021.0 1016.8
нст 1 16 км 10/10 870 м +23.3 +17.8 71 +29 +29 душно 1016.1
В 1
{4}
16 км 10/10 660 м +21.1 +16.7 76 +25 +25 комфорт 1020.0 1015.8
В 1 16 км 10/10 810 м +20.6 +15.6 73 +24 +24 комфорт 1017.1
В 1 16 км 10/10 960 м +20.6 +15.6 73 +24 +24 комфорт 1021.2 1017.1
В 1 16 км слабый дождь 10/10 1020 м +18.9 +15.6 81 +21 +21 комфорт 1022.2 1018.1
В 1 16 км слабый дождь 8/2 1260 м
[Ac]
+17.2 +16.1 93 +18 +18 1021.8 1017.8 +17.2 +23.3 1.8
Местоположение метеостанции Wakefield Municipal Airport: широта 36.9814 долгота -77.0011 высота над уровнем моря 34 м.
В архиве по умолчанию представлена погода в Уэйкфилде за последние 1-2 суток. Обновление информации о фактической погоде в базе происходит ежечасно! Архивные данные за месяц целиком и за предыдущие месяцы Вы можете получить, выбрав интересующий диапазон дат из раскрывающегося списка и нажав кнопку "Ввод!".
Внимание! Архив погоды МЕТАР в базе сайта по станциям, не включенным в климатический монитор, хранится не более 60 дней. Нет смысла пытаться выбрать более раннюю дату.
*Определитесь, кто Вы:
Внимание! Время в таблицах - местное (без учета летнего времени). Для получения всемирного времени необходимо вычесть поправку, которая равна -5 ч.
Смотрите также архив погоды в соседних городах и на ближайших метеорологических станциях:
Партнеры нашего сайта:      
Пояснения к столбцам:
  • Ветер - указаны скорость ветра в м/с - средняя за 10 мин, порывы в срок и между сроками (в фигурных скобках) и направление, откуда дует ветер: С - северный,
  • СВ - северо-восточный, В - восточный, ЮВ - юго-восточный, Ю - южный, ЮЗ - юго-западный, З - западный, СЗ - северо-западный.
  • Видимость - горизонтальная дальность видимости в метрах или километрах. При видимости от 1 до 10 км при отсутствии осадков обычно наблюдается дымка, при ухудшении видимости до 1 км и менее - туман. В сухую погоду видимость может ухудшаться дымом, пылью или мглою.
  • Явления - указаны атмосферные явления, наблюдавшиеся в срок или в последний час перед сроком; фигурными скобками обозначены явления, наблюдавшиеся между сроками (за 1-3 часа до срока); квадратными скобками обозначены град или гололедные отложения с указанием их диаметра в мм.
  • Облачность - указаны через наклонную черту общая и нижняя облачность в баллах и высота нижней границы облаков в метрах; квадратными скобками обозначены формы облаков: Ci - перистые, Cs - перисто-слоистые, Cc - перисто-кучевые, Ac - высококучевые, As - высокослоистые, Sc - слоисто-кучевые, Ns - слоисто-дождевые, Cu - кучевые, Cb - кучево-дождевые. Подробнее классификацию облаков см. в Атласе облаков (PDF).
  • T - Температура воздуха - температура, измеренная на высоте 2 м над землей.
  • Td - Температура точки росы - температура, при понижении до которой содержащийся в воздухе водяной пар достигнет насыщения.
  • f - Относительная влажность воздуха - влажноcть воздуха, измеренная на высоте 2 м над землей.
  • Te - Эффективная температура - температура, которую ощущает одетый по сезону человек в тени. Характеристика душности погоды. При расчете учитывается влияние влажности воздуха и скорости ветра на теплоощущения человека.
  • Tes - Эффективная температура на солнце - температура, которую ощущает человек, с поправкой на солнечный нагрев. Характеристика знойности погоды. Зависит от высоты солнца над горизонтом, облачности и скорости ветра. Ночью, в пасмурную погоду, а также при ветре 12 м/с и более поправка равна нулю.
  • P - Атмосферное давление - приведенное к уровню моря атмосферное давление.
  • Po - Атмосферное давление - измеренное на уровне метеостанции атмосферное давление.
  • Tmin - Минимальная температура - минимум температуры воздуха на высоте 2 м над землей.
  • Tmax - Максимальная температура - максимум температуры воздуха на высоте 2 м над землей.
  • R - Количество осадков - Количество выпавших осадков за период времени, мм. При наведении курсора мыши на число - период времени, за который выпало указанное количество осадков.
  • R24 - Количество осадков - Количество выпавших осадков за 24 часа, мм.
  • S - Снежный покров - Высота снежного покрова, см. При наведении курсора мыши на число - состояние снежного покрова и степень покрытия местности в баллах.